This demonstration page uses our WeatherBlox Daily Observations layout. Learn more.

Left ArrowRight Arrow

38.89511, -77.03637

Hourly Observations for June 23, 2015

Temp ( °F °C ) Dew Point ( °F °C ) Humidity (%) Winds ( mph kmh ) Pressure ( in mb ) Visibility ( mi km ) Precip ( " mm )
12:52 am 00:52 Mostly Cloudy 82 27.8 72 22.2 72 72 S 9 15 29.98 1015 10 16 N/A
1:52 am 01:52 Mostly Cloudy 80 26.7 73 22.8 79 79 S 7 11 29.97 1015 10 16 N/A
2:52 am 02:52 Partly Cloudy 80 26.7 73 22.8 79 79 SSW 5 7 29.98 1015 10 16 N/A
3:52 am 03:52 Partly Cloudy 79 26.1 72 22.2 79 79 SSW 6 9 29.97 1015 10 16 N/A
4:52 am 04:52 Partly Cloudy 79 26.1 73 22.8 82 82 S 9 15 29.97 1015 10 16 N/A
5:52 am 05:52 Mostly Cloudy 79 26.1 72 22.2 79 79 SSW 7 11 29.98 1015 10 16 N/A
6:52 am 06:52 Mostly Cloudy 80 26.7 71 21.7 74 74 SSW 7 11 29.97 1015 10 16 N/A
7:52 am 07:52 Mostly Cloudy 82 27.8 73 22.8 74 74 S 10 17 29.95 1014 10 16 N/A
8:52 am 08:52 Cloudy 85 29.4 72 22.2 65 65 SW 8 13 29.94 1014 10 16 N/A
9:52 am 09:52 Cloudy 88 31.1 73 22.8 61 61 S 9 15 29.93 1014 10 16 N/A
10:52 am 10:52 Cloudy 88 31.1 75 23.9 66 66 S 12 19 29.92 1013 10 16 N/A
11:52 am 11:52 Cloudy 91 32.8 76 24.4 61 61 S 12 19 29.91 1013 10 16 N/A
12:52 pm 12:52 Cloudy 92 33.3 76 24.4 60 60 S 14 22 29.91 1013 10 16 N/A
1:52 pm 13:52 Cloudy 95 35 73 22.8 49 49 S 12 19 29.89 1012 10 16 N/A
2:52 pm 14:52 Cloudy 93 33.9 74 23.3 54 54 S 14 22 29.87 1011 10 16 N/A
3:52 pm 15:52 Cloudy 95 35 73 22.8 49 49 SSW 16 26 29.86 1011 10 16 N/A
4:52 pm 16:52 Cloudy 96 35.6 74 23.3 49 49 SSW 17 28 29.83 1010 10 16 N/A
5:52 pm 17:52 Mostly Cloudy 95 35 73 22.8 49 49 SSW 17 28 29.78 1009 10 16 N/A
6:03 pm 18:03 Mostly Cloudy 95 35 73 23 50 50 SW 16 26 29.80 1009 10 16 N/A
6:32 pm 18:32 Mostly Cloudy 93 34 73 23 53 53 SSW 20 31 29.80 1009 10 16 N/A
6:47 pm 18:47 Mostly Cloudy 93 34 73 23 53 53 WSW 10 17 29.88 1012 10 16 N/A
6:52 pm 18:52 Mostly Cloudy 90 32.2 70 21.1 52 52 NNW 36 57 29.90 1012 10 16 N/A
6:54 pm 18:54 Mostly Cloudy with Light Rain 84 29 68 20 58 58 NNW 37 59 29.91 1013 9 14 N/A
6:58 pm 18:58 Mostly Cloudy with Thunderstorms 81 27 70 21 70 70 NNW 41 67 29.91 1013 3 5 N/A
7:04 pm 19:04 Cloudy with Strong Thunderstorms 77 25 70 21 79 79 N 30 48 29.91 1013 1 2 N/A
7:10 pm 19:10 Cloudy with Thunderstorms 75 24 70 21 83 83 N 13 20 29.88 1012 3 4 N/A
7:13 pm 19:13 Cloudy with Strong Thunderstorms 75 24 70 21 83 83 NW 16 26 29.91 1013 1 1 0.07 1.78
7:19 pm 19:19 Cloudy with Strong Thunderstorms 75 24 70 21 83 83 NNW 12 19 29.88 1012 1 1 0.20 5.08
7:32 pm 19:32 Cloudy with Strong Thunderstorms 75 24 72 22 89 89 WNW 9 15 29.91 1013 1 2 N/A
7:39 pm 19:39 Cloudy with Strong Thunderstorms 75 24 72 22 89 89 W 15 24 29.91 1013 1 2 0.70 17.78
7:43 pm 19:43 Cloudy with Thunderstorms 75 24 70 21 83 83 W 12 19 29.91 1013 2 3 0.78 19.81
7:47 pm 19:47 Cloudy with Thunderstorms 75 24 70 21 83 83 W 7 11 29.91 1013 3 5 0.82 20.83
8:02 pm 20:02 Mostly Cloudy with Thunderstorms 75 24 72 22 89 89 NNE 9 15 29.88 1012 10 16 N/A
8:43 pm 20:43 Mostly Cloudy 79 26 72 22 79 79 WNW 3 6 29.91 1013 10 16 N/A
8:52 pm 20:52 Mostly Cloudy 78 25.6 71 21.7 79 79 SSE 3 6 29.93 1014 10 16 N/A
9:52 pm 21:52 Cloudy 77 25 72 22.2 85 85 S 10 17 29.94 1014 10 16 N/A
10:52 pm 22:52 Cloudy 76 24.4 71 21.7 85 85 WSW 5 7 29.95 1014 10 16 N/A
11:52 pm 23:52 Cloudy 77 25 72 22.2 85 85 SW 5 7 29.96 1015 10 16 N/A

Powered by AerisWeather